Weather History for KE80 - February, 2014

Change the Weather History Date:

Wednesday, February 26, 2014

  Actual Average (KABQ) Record (KABQ)
Temperature  
Mean Temperature 50 °F 44 °F  
Max Temperature 66 °F 56 °F 74 °F (1986)
Min Temperature 33 °F 33 °F 13 °F (1935)
Degree Days  
Heating Degree Days 16 21  
Month to date heating degree days 620  
Since 1 July heating degree days 3262  
Cooling Degree Days 0 0  
Month to date cooling degree days 0  
Year to date cooling degree days 0  
Moisture  
Dew Point 21 °F    
Average Humidity 35    
Maximum Humidity 66    
Minimum Humidity 17    
Precipitation  
Precipitation 0.00 in 0.01 in 0.42 in (1948)
Month to date precipitation 0.44  
Year to date precipitation 0.82  
Snow  
Snow 0.00 in - - ()
Month to date snowfall  
Since 1 July snowfall  
Snow Depth -    
Sea Level Pressure  
Sea Level Pressure 30.02 in    
Wind  
Wind Speed 5 mph (East)    
Max Wind Speed 15 mph    
Max Gust Speed 9 mph    
Visibility 10 miles    
Events      
T = Trace of Precipitation, MM = Missing Value Source: NWS Daily Summary

Daily Weather History Graph

Daily Weather History Graph

Search for Another Location

Airport or City:

Trip Planner

Search our weather history database for the weather conditions in past years. The results will help you decide how hot, cold, wet, or windy it might be!

Date:

Astronomy

Feb. 26, 2014 Rise Set
Actual Time 6:40 AM MST 6:00 PM MST
Civil Twilight 6:14 AM MST 6:26 PM MST
Nautical Twilight 5:45 AM MST 6:55 PM MST
Astronomical Twilight 5:16 AM MST 7:24 PM MST
Moon 4:23 AM MST (2/26) 3:23 PM MST (2/26)
Length of Visible Light 12h 11m
Length of Day
11h 20m
Waning Crescent, 9% of the Moon is Illuminated
Feb 26
Waning Crescent
Mar 1
New
Mar 8
First Quarter
Mar 16
Full
Mar 23
Last Quarter

Hourly Weather History & Observations

Time (MST) Temp. Windchill Dew Point Humidity Pressure Visibility Wind Dir Wind Speed Gust Speed Precip Events Conditions
12:15 AM 53.6 °F - 21.0 °F 28% 30.03 in 10.0 mi NNW 4.6 mph - N/A   Clear
12:35 AM 52.3 °F - 20.7 °F 29% 30.04 in 10.0 mi ENE 3.5 mph - N/A   Mostly Cloudy
12:55 AM 52.3 °F - 20.8 °F 29% 30.04 in 10.0 mi Calm Calm - N/A   Overcast
1:15 AM 51.3 °F - 20.8 °F 30% 30.04 in 10.0 mi NNW 3.5 mph - N/A   Overcast
1:35 AM 53.1 °F - 21.4 °F 29% 30.04 in 10.0 mi North 3.5 mph - N/A   Overcast
1:55 AM 51.6 °F - 21.2 °F 30% 30.04 in 10.0 mi Calm Calm - N/A   Overcast
2:15 AM 49.1 °F - 21.2 °F 33% 30.04 in 10.0 mi SE 5.8 mph - N/A   Overcast
2:35 AM 46.0 °F 41.0 °F 23.0 °F 40% 30.04 in 10.0 mi SE 10.4 mph - N/A   Overcast
2:55 AM 43.9 °F 37.2 °F 23.4 °F 44% 30.03 in 10.0 mi SE 13.8 mph - N/A   Overcast
3:15 AM 42.6 °F 36.3 °F 23.4 °F 47% 30.03 in 10.0 mi SE 11.5 mph - N/A   Overcast
3:35 AM 40.6 °F 32.7 °F 23.9 °F 51% 30.03 in 10.0 mi SE 15.0 mph - N/A   Overcast
3:55 AM 39.7 °F 32.7 °F 24.3 °F 54% 30.03 in 10.0 mi SE 11.5 mph - N/A   Overcast
4:15 AM 39.2 °F 33.6 °F 23.9 °F 54% 30.03 in 10.0 mi SSE 8.1 mph - N/A   Overcast
4:35 AM 38.8 °F 32.6 °F 23.9 °F 55% 30.04 in 10.0 mi SE 9.2 mph - N/A   Overcast
4:55 AM 38.7 °F 32.4 °F 23.9 °F 55% 30.05 in 10.0 mi East 9.2 mph - N/A   Overcast
5:15 AM 37.8 °F 31.8 °F 23.7 °F 57% 30.06 in 10.0 mi ENE 8.1 mph - N/A   Overcast
5:35 AM 36.9 °F 32.2 °F 23.5 °F 59% 30.07 in 10.0 mi ENE 5.8 mph - N/A   Overcast
5:55 AM 36.7 °F 31.2 °F 23.0 °F 58% 30.08 in 10.0 mi NE 6.9 mph - N/A   Overcast
6:15 AM 36.5 °F 31.0 °F 23.0 °F 58% 30.08 in 10.0 mi NE 6.9 mph - N/A   Overcast
6:35 AM 35.2 °F 30.3 °F 23.0 °F 61% 30.09 in 10.0 mi NE 5.8 mph - N/A   Mostly Cloudy
6:55 AM 34.0 °F 28.8 °F 23.0 °F 64% 30.09 in 10.0 mi NE 5.8 mph - N/A   Scattered Clouds
7:15 AM 33.3 °F 30.2 °F 22.8 °F 66% 30.10 in 10.0 mi North 3.5 mph - N/A   Scattered Clouds
7:35 AM 34.2 °F - 22.6 °F 63% 30.11 in 10.0 mi Calm Calm - N/A   Scattered Clouds
7:55 AM 36.0 °F - 23.0 °F 59% 30.12 in 10.0 mi Calm Calm - N/A   Clear
8:15 AM 37.8 °F 35.3 °F 23.0 °F 55% 30.12 in 10.0 mi NNE 3.5 mph - N/A   Clear
8:35 AM 39.2 °F 37.0 °F 23.5 °F 53% 30.12 in 10.0 mi NE 3.5 mph - N/A   Clear
8:55 AM 40.3 °F 36.3 °F 23.9 °F 52% 30.13 in 10.0 mi NE 5.8 mph - N/A   Clear
9:15 AM 41.2 °F 39.2 °F 23.9 °F 50% 30.12 in 10.0 mi ESE 3.5 mph - N/A   Clear
9:35 AM 42.8 °F - 23.9 °F 47% 30.12 in 10.0 mi Calm Calm - N/A   Clear
9:55 AM 43.5 °F 40.9 °F 23.7 °F 46% 30.12 in 10.0 mi ENE 4.6 mph - N/A   Clear
10:15 AM 45.7 °F - 23.9 °F 42% 30.11 in 10.0 mi Calm Calm - N/A   Clear
10:35 AM 46.6 °F - 23.7 °F 41% 30.11 in 10.0 mi Calm Calm - N/A   Clear
10:55 AM 49.5 °F - 24.3 °F 37% 30.10 in 10.0 mi SE 4.6 mph - N/A   Clear
11:15 AM 50.4 °F - 24.1 °F 36% 30.09 in 10.0 mi SE 3.5 mph - N/A   Clear
11:35 AM 51.4 °F - 24.3 °F 35% 30.07 in 10.0 mi East 5.8 mph - N/A   Clear
11:55 AM 54.7 °F - 24.8 °F 32% 30.05 in 10.0 mi ENE 4.6 mph - N/A   Clear
12:15 PM 55.4 °F - 24.6 °F 30% 30.04 in 10.0 mi NE 5.8 mph - N/A   Clear
12:35 PM 57.0 °F - 24.6 °F 29% 30.02 in 10.0 mi ESE 3.5 mph - N/A   Clear
12:55 PM 59.2 °F - 24.8 °F 27% 30.01 in 10.0 mi South 3.5 mph - N/A   Clear
1:15 PM 60.6 °F - 24.6 °F 25% 29.99 in 10.0 mi ESE 6.9 mph - N/A   Clear
1:35 PM 60.8 °F - 23.9 °F 24% 29.98 in 10.0 mi Calm Calm - N/A   Clear
1:55 PM 63.5 °F - 23.9 °F 22% 29.97 in 10.0 mi South 4.6 mph - N/A   Clear
2:15 PM 63.9 °F - 23.0 °F 21% 29.95 in 10.0 mi NE 3.5 mph - N/A   Clear
2:35 PM 65.3 °F - 23.0 °F 20% 29.95 in 10.0 mi SSW 3.5 mph - N/A   Clear
2:55 PM 65.1 °F - 22.1 °F 19% 29.94 in 10.0 mi Calm Calm - N/A   Clear
3:15 PM 66.0 °F - 21.9 °F 19% 29.93 in 10.0 mi South 3.5 mph - N/A   Clear
3:35 PM 65.7 °F - 21.6 °F 19% 29.93 in 10.0 mi Calm Calm - N/A   Clear
3:55 PM 66.2 °F - 21.7 °F 18% 29.93 in 10.0 mi Calm Calm - N/A   Scattered Clouds
4:15 PM 65.5 °F - 21.6 °F 19% 29.93 in 10.0 mi Calm Calm - N/A   Mostly Cloudy
4:35 PM 65.7 °F - 19.6 °F 17% 29.93 in 10.0 mi NNW 11.5 mph - N/A   Overcast
4:55 PM 65.1 °F - 19.0 °F 17% 29.93 in 10.0 mi WNW 4.6 mph 9.2 mph N/A   Overcast
5:15 PM 65.3 °F - 20.3 °F 18% 29.93 in 10.0 mi NNW 6.9 mph - N/A   Mostly Cloudy
5:35 PM 65.3 °F - 19.2 °F 17% 29.93 in 10.0 mi WSW 6.9 mph - N/A   Overcast
5:55 PM 63.5 °F - 17.6 °F 17% 29.93 in 10.0 mi WNW 12.7 mph - N/A   Overcast
6:15 PM 60.6 °F - 17.2 °F 19% 29.94 in 10.0 mi West 8.1 mph - N/A   Scattered Clouds
6:35 PM 56.5 °F - 17.4 °F 22% 29.94 in 10.0 mi NW 3.5 mph - N/A   Scattered Clouds
6:55 PM 53.8 °F - 16.9 °F 23% 29.95 in 10.0 mi West 5.8 mph - N/A   Mostly Cloudy
7:15 PM 52.7 °F - 16.7 °F 24% 29.95 in 10.0 mi WSW 6.9 mph - N/A   Scattered Clouds
7:35 PM 53.4 °F - 14.0 °F 21% 29.95 in 10.0 mi West 8.1 mph - N/A   Scattered Clouds
7:55 PM 51.6 °F - 13.8 °F 22% 29.96 in 10.0 mi NW 6.9 mph - N/A   Scattered Clouds
8:15 PM 52.7 °F - 14.2 °F 22% 29.97 in 10.0 mi WNW 8.1 mph - N/A   Clear
8:35 PM 50.5 °F - 14.0 °F 23% 29.97 in 10.0 mi WNW 6.9 mph - N/A   Clear
8:55 PM 50.4 °F - 14.9 °F 24% 29.98 in 10.0 mi West 6.9 mph - N/A   Clear
9:15 PM 53.1 °F - 15.6 °F 23% 29.98 in 10.0 mi West 5.8 mph - N/A   Clear
9:35 PM 51.4 °F - 16.2 °F 25% 29.98 in 10.0 mi WNW 5.8 mph - N/A   Clear
9:55 PM 52.3 °F - 16.7 °F 24% 29.99 in 10.0 mi WNW 3.5 mph - N/A   Clear
10:15 PM 52.3 °F - 16.7 °F 24% 29.99 in 10.0 mi Calm Calm - N/A   Clear
10:35 PM 50.2 °F - 16.3 °F 26% 29.99 in 10.0 mi SSE 4.6 mph - N/A   Scattered Clouds
10:55 PM 49.6 °F - 16.9 °F 27% 30.00 in 10.0 mi South 5.8 mph - N/A   Mostly Cloudy
11:15 PM 49.6 °F - 17.6 °F 28% 29.99 in 10.0 mi South 3.5 mph - N/A   Overcast
11:35 PM 47.1 °F - 17.6 °F 31% 29.99 in 10.0 mi South 5.8 mph - N/A   Scattered Clouds
11:55 PM 47.8 °F - 18.3 °F 31% 30.00 in 10.0 mi SW 4.6 mph - N/A   Mostly Cloudy